Printer-friendly version

IAU Minor Planet Center

Minor Planet Center

MPEC 1999-V37: 1999 VQ11

The following Minor Planet Electronic Circular may be linked-to from your own Web pages, but must not otherwise be redistributed electronically.


Read MPEC 1999-V36 Read MPEC 1999-V38


M.P.E.C. 1999-V37                                Issued 1999 Nov. 11, 19:35 UT

     The Minor Planet Electronic Circulars contain information on unusual
         minor planets and routine data on comets.  They are published
   on behalf of Commission 20 of the International Astronomical Union by the
          Minor Planet Center, Smithsonian Astrophysical Observatory,
                          Cambridge, MA 02138, U.S.A.

             BMARSDEN@CFA.HARVARD.EDU or GWILLIAMS@CFA.HARVARD.EDU
          URL http://cfa-www.harvard.edu/iau/mpc.html  ISSN 1523-6714

                                   1999 VQ11

Observations:
     J99V11Q* C1999 11 08.08785 22 07 44.97 -11 28 10.6          18.4        704
     J99V11Q  C1999 11 08.10459 22 07 48.81 -11 27 21.4          18.5        704
     J99V11Q  C1999 11 08.12089 22 07 52.40 -11 26 32.4          18.7        704
     J99V11Q  C1999 11 08.13719 22 07 56.08 -11 25 44.2          18.0        704
     J99V11Q  C1999 11 10.05845 22 15 26.06 -09 50 04.5          18.1        704
     J99V11Q  C1999 11 10.07468 22 15 29.72 -09 49 15.6          18.2        704
     J99V11Q  C1999 11 10.07481 22 15 29.87 -09 49 14.2          17.3 R      853
     J99V11Q  C1999 11 10.07649 22 15 30.23 -09 49 09.2          17.0 R      853
     J99V11Q  C1999 11 10.07757 22 15 30.49 -09 49 06.0          17.1 R      853
     J99V11Q  C1999 11 10.09085 22 15 33.40 -09 48 27.1          17.9        704
     J99V11Q  C1999 11 10.09800 22 15 35.31 -09 48 05.8                      670
     J99V11Q  C1999 11 10.10702 22 15 37.05 -09 47 38.4          18.8        704
     J99V11Q  C1999 11 10.10709 22 15 37.44 -09 47 38.9                      670
     J99V11Q  C1999 11 10.11862 22 15 39.93 -09 47 04.5                      670
     J99V11Q  C1999 11 10.12321 22 15 40.71 -09 46 49.5          18.3        704
     J99V11Q  C1999 11 10.13381 22 15 43.29 -09 46 16.9          18.1 V      719
     J99V11Q  C1999 11 10.13792 22 15 44.40 -09 46 06.9                      670
     J99V11Q  C1999 11 10.14111 22 15 44.72 -09 45 57.3          18.1 V      719
     J99V11Q  C1999 11 10.14450 22 15 45.57 -09 45 45.1          18.5 V      719
     J99V11Q  C1999 11 10.15226 22 15 47.46 -09 45 22.1          18.1 V      651
     J99V11Q  C1999 11 10.16409 22 15 50.23 -09 44 48.8                      670
     J99V11Q  C1999 11 10.16782 22 15 51.04 -09 44 34.9          17.5 V      651
     J99V11Q  C1999 11 10.18098 22 15 54.01 -09 43 55.3          17.7 V      651
     J99V11Q  C1999 11 10.44403 22 16 56.44 -09 30 43.4          18.1 V      402
     J99V11Q  C1999 11 10.44529 22 16 56.73 -09 30 39.8                      402
     J99V11Q  C1999 11 10.44655 22 16 56.99 -09 30 36.2                      402
     J99V11Q  C1999 11 10.44781 22 16 57.30 -09 30 32.0                      402
     J99V11Q  C1999 11 10.85740 22 18 33.59 -09 09 58.6                      595
     J99V11Q  C1999 11 10.86291 22 18 35.02 -09 09 42.1          18.3 V      595
     J99V11Q  C1999 11 10.87123 22 18 36.81 -09 09 18.2                      595
     J99V11Q  C1999 11 11.10304 22 19 32.41 -08 57 34.0          18.8 V      719
     J99V11Q  C1999 11 11.10657 22 19 33.16 -08 57 22.6          18.9 V      719
     J99V11Q  C1999 11 11.12447 22 19 37.35 -08 56 27.6          18.6 R      853
     J99V11Q  C1999 11 11.12522 22 19 37.52 -08 56 25.5          18.6 R      853
     J99V11Q  C1999 11 11.12666 22 19 37.86 -08 56 21.1          18.4 R      853
     J99V11Q  C1999 11 11.16008 22 19 45.67 -08 54 36.9          19.3 V      719
     J99V11Q  C1999 11 11.16352 22 19 46.39 -08 54 30.2          18.7 V      719

Observer details:
402 Dynic Astronomical Observatory.  Observer A. Sugie.  0.60-m f/3.7 reflector
    + CCD.
595 Farra d'Isonzo.  Observers G. Lombardi, A. Toso, E. Pettarin, C. Tonini.
    0.40-m f/4.5 reflector + CCD.
651 Grasslands Observatory, Tucson.  Observer J. E. McGaha.  0.62-m f/5.1 reflec
670 Camarillo.  Observer J. E. Rogers.  0.30-m f/6.7 Helin Telescope + CCD.
704 Lincoln Laboratory ETS, New Mexico.  Observers M. Blythe, F. Shelly,
    M. Bezpalko, M. Elowitz, R. Huber.  Measurers J. Stuart, H. Viggh,
    R. Sayer.  1.0-m f/2.15 reflector + CCD.
719 Etscorn Observatory.  Observer D. A. Klinglesmith III.  0.355-m
    Schmidt-Cassegrain + CCD.
853 Biosphere 2 Observatory.  Observers G. J. Garradd, S. Airieau.  0.5-m f/8.1
    reflector + CCD.

Orbital elements:
1999 VQ11
Epoch 1999 Oct. 29.0 TT = JDT 2451480.5                 Williams
M 359.36488              (2000.0)            P               Q
n   0.19538542     Peri.  353.11910     +0.94006085     -0.33517811
a   2.9413133      Node    26.73030     +0.31914274     +0.79989025
e   0.6124464      Incl.    8.02320     +0.12013956     +0.49782650
P   5.04           H   18.1           G   0.15
From 37 observations 1999 Nov. 8-11.

Ephemeris:
1999 VQ11                a,e,i = 2.94, 0.61, 8                   q = 1.1399
Date    TT    R. A. (2000) Decl.     Delta      r     Elong.  Phase     V
1999 11 08    22 07.41   -11 32.3    0.372    1.143   104.6    57.0    18.3
1999 11 13    22 27.08   -07 21.2    0.376    1.149   105.6    56.0    18.3
1999 11 18    22 47.29   -03 06.0    0.384    1.159   106.8    54.7    18.3
1999 11 23    23 07.85   +01 06.9    0.395    1.172   108.1    53.2    18.4
1999 11 28    23 28.56   +05 10.6    0.411    1.188   109.3    51.6    18.5
1999 12 03    23 49.27   +08 59.7    0.432    1.207   110.5    49.9    18.5
1999 12 08    00 09.85   +12 30.0    0.458    1.229   111.5    48.3    18.7
1999 12 13    00 30.15   +15 39.3    0.487    1.253   112.2    46.7    18.8
1999 12 18    00 50.09   +18 26.8    0.522    1.279   112.6    45.3    18.9
1999 12 23    01 09.55   +20 52.8    0.560    1.307   112.8    43.9    19.1
1999 12 28    01 28.48   +22 58.5    0.603    1.337   112.6    42.8    19.3
2000 01 02    01 46.85   +24 45.7    0.650    1.368   112.2    41.7    19.5
2000 01 07    02 04.65   +26 16.5    0.700    1.401   111.5    40.8    19.7
2000 01 12    02 21.91   +27 32.9    0.754    1.435   110.6    39.9    19.9
2000 01 17    02 38.62   +28 36.8    0.812    1.470   109.5    39.1    20.0
2000 01 22    02 54.80   +29 29.9    0.873    1.506   108.2    38.4    20.2
2000 01 27    03 10.47   +30 13.5    0.937    1.543   106.7    37.7    20.4
2000 02 01    03 25.67   +30 48.9    1.005    1.580   105.1    37.0    20.6
2000 02 06    03 40.45   +31 17.3    1.075    1.617   103.3    36.4    20.8
2000 02 11    03 54.82   +31 39.6    1.148    1.655   101.4    35.8    21.0
2000 02 16    04 08.83   +31 56.5    1.223    1.694    99.5    35.1    21.1
2000 02 21    04 22.47   +32 08.7    1.301    1.732    97.4    34.5    21.3
2000 02 26    04 35.78   +32 16.6    1.381    1.771    95.2    33.8    21.5
2000 03 02    04 48.79   +32 20.6    1.463    1.810    93.0    33.2    21.6
2000 03 07    05 01.51   +32 21.2    1.547    1.849    90.8    32.5    21.8
2000 03 12    05 13.96   +32 18.6    1.632    1.888    88.5    31.8    21.9
2000 03 17    05 26.15   +32 13.1    1.719    1.926    86.1    31.0    22.0

Gareth V. Williams           (C) Copyright 1999 MPC           M.P.E.C. 1999-V37

Read MPEC 1999-V36 Read MPEC 1999-V38


Our Web policy. Index to the CBAT/MPC/ICQ pages.


Valid HTML 4.01!